Location: Newark
(27.9675°N, 86.8869°E)
Time: 12:16:44
(UTC+00:00)

Vanguard 3 - Pass Details

Date: 23 October 2019
Orbit: 508 x 3263 km, 33.4° (Epoch: 18 November)

Event Time Altitude Azimuth Distance (km) Brightness Sun altitude
Rises 17:43:43 0° 272° (W) 3,001 - -73.2°
Reaches altitude 10° 17:46:23 10° 280° (W) 1,890 - -73.3°
Maximum altitude 17:50:12 40° 352° (N) 760 - -73.4°
Drops below altitude 10° 17:53:42 10° 64° (ENE) 1,730 - -73.5°
Sets 17:56:02 0° 72° (ENE) 2,706 - -73.5°
